sat.trackr.live / text

‹ back to catalog

TURKSAT 5A

NORAD 47306 · 2021-001A

PAYLOAD ACTIVE UNKNOWN

§ Identity

Operator
Country
TURK
Launch date
2021-01-08
Launch site
AFETR
Launch vehicle
Mass (kg)
RCS (m²)

Purposes: comms

External: N2YO · Heavens-Above · Gunter

§ Orbital elements

Epoch: 2026-05-24T14:12:05.470272Z

Period
1,436.09 min
Inclination
0.0273°
Eccentricity
0.0000089
Mean motion
1.00272065 rev/d
Perigee alt
35,786.1 km
Apogee alt
35,786.9 km
Semi-major
42,164.7 km
B*
0.0000e+0
RAAN
72.2208°
Arg perigee
271.0108°
Mean anomaly
142.9093°
Rev number
1,973

§ Raw data

TURKSAT 5A1 47306U 21001A   26144.59172998  .00000150  00000+0  00000+0 0  99952 47306   0.0273  72.2208 0000089 271.0108 142.9093  1.00272065 19732

JSON: /api/v1/satellites/47306 · /tle

For live sub-satellite position, see the globe view (requires WebGL).

§ Visibility from observer

Set your observer location to see the next 7 days of passes ≥ 10°. The values pass through the URL so the page stays shareable.

No JS? Fill the form by hand. The geolocation button needs JavaScript.